STARLINK-1307 (45397 NORAD) Tracking and Keplerian Element Data

This shows tracking and keplerian element data for the satellite.

Feedback or suggestion? Click here.




ElementValue
Catalog45397
NameSTARLINK-1307
Epoch Orbit1109
Epoch Day146.25001157
Epoch Year2020
RAAN282.9845
Inclination52.9976
Eccentricity0.0002996
Argument of Perigee89.9944
Mean Anonmoly343.3063
Mean Motion15.49278383
Decay Rate0.04007455
L11 45397U 20019AP 20146.25001157 .04007455 00000-0 62638-1 0 9995
L22 45397 52.9976 282.9845 0002996 89.9944 343.3063 15.49278383 11098

Live tracking and technical data element details for STARLINK-1307 (NORAD 45397). STARLINK-1307 can be tracked NOW for your location showing map with azimuth and elevation plus other details from your city location.

Track the satellite on the map from your city or location and see movement details for azimuth, elevation, latitude, longitude, range, height, and movement on the map or in text.







IsCatalogInMostPopularTable: catalog: 45397, numindb: 15
Update: records affected: 1



GetName: 45397 STARLINK-1307

Hit Count: updated at: Tue, 26 May 2020 03:07:41 GMT